[[{"header":{"parameterUnit":"m.s-1","parameterCategory":1,"la1":30.2991,"la2":30.254,"lo1":-89.0895,"lo2":-89.0444,"dy":0.0017,"dx":0.0017,"nx":28,"ny":28,"refTime":"2024-07-11T21:00:00:Z","depth":0,"parameterNumber":2,"parameterNumberName":"U-component_of_WINDS"},"data":[0,0,0,0,0,0,0,0,0,0,0,0,0,0,0,0,0,0,0,0,0,0,0,0,0,0,0,0,0,0,0,0,0,0,0,0,0,0,0,0,0,0,0,0,0,0,0,0,0,0,0,0,0,0,0,0,0,0,-1.042,-1.042,0,-1.0392,-1.0392,-1.0391,-1.0391,-1.0391,-1.0392,-1.0392,-1.0358,-1.0357,-1.0356,0,0,0,0,0,0,0,0,0,0,0,0,0,-1.0471,-1.047,-1.042,-1.042,-1.042,-1.0392,-1.0392,-1.0391,-1.0391,-1.0391,-1.0392,-1.0392,-1.0358,-1.0357,-1.0355,0,0,0,0,0,0,0,0,0,0,0,0,0,-1.0447,-1.047,-1.042,-1.0416,-1.0416,-1.0392,-1.0392,-1.0391,-1.0391,-1.0391,-1.0392,-1.0392,-1.0359,-1.0357,-1.0355,-1.0333,0,0,-1.035,-1.0349,0,0,0,0,0,0,0,0,-1.0448,-1.0445,-1.0417,-1.0416,-1.0416,-1.0396,-1.0397,-1.0371,-1.039,-1.04,-1.0392,-1.0393,-1.037,-1.0367,-1.036,-1.0331,-1.033,-1.0349,-1.0348,-1.0347,-1.0347,0,0,0,0,0,0,0,-1.045,-1.0446,-1.0409,-1.0417,-1.0416,-1.0415,-1.0412,-1.0392,-1.0382,-1.0399,-1.0399,-1.0396,-1.0369,-1.0362,-1.036,-1.0329,-1.0349,-1.0348,-1.0347,-1.0346,-1.0283,-1.0282,0,0,0,0,0,0,-1.0453,-1.0447,-1.041,-1.0408,-1.0434,-1.0414,-1.041,-1.0401,-1.0382,-1.038,-1.0396,-1.0396,-1.0365,-1.0362,-1.0358,-1.0332,-1.0347,-1.0346,-1.0345,-1.0283,-1.0282,-1.0282,0,0,0,0,0,0,-1.0454,-1.0449,-1.0411,-1.0428,-1.0423,-1.0412,-1.0402,-1.0401,-1.0393,-1.038,-1.0377,-1.039,-1.0365,-1.0361,-1.034,-1.0331,-1.0345,-1.0343,-1.0284,-1.0283,-1.0282,-1.0279,0,0,0,0,0,0,-1.0455,-1.045,-1.0442,-1.0428,-1.0422,-1.0394,-1.0402,-1.04,-1.0391,-1.0391,-1.0374,-1.0372,-1.0365,-1.0343,-1.0338,-1.0329,-1.0342,-1.0284,-1.0283,-1.0282,-1.0279,-1.0278,-1.0276,0,0,0,0,0,-1.0457,-1.044,-1.0441,-1.0437,-1.0412,-1.0393,-1.039,-1.0385,-1.039,-1.0381,-1.0373,-1.0372,-1.0333,-1.0341,-1.0335,-1.0325,-1.0285,-1.0284,-1.0282,-1.028,-1.0278,-1.0276,0,0,0,0,0,0,-1.0451,-1.0438,-1.0439,-1.0417,-1.0407,-1.0393,-1.0382,-1.0382,-1.0368,-1.0369,-1.0362,-1.0358,-1.0338,-1.0329,-1.0338,-1.0304,-1.0309,-1.0307,-1.031,-1.0307,-1.0306,-1.0308,-1.034,0,0,0,0,0,-1.0447,-1.0435,-1.0424,-1.0406,-1.0401,-1.0393,-1.0384,-1.0382,-1.0369,-1.0364,-1.0354,-1.0342,-1.0327,-1.0317,-1.0302,-1.0279,-1.0275,-1.0269,-1.0268,-1.0266,-1.0264,-1.0253,-1.025,-1.0278,-1.0278,-1.0278,0,0,-1.0439,-1.043,-1.0422,-1.0404,-1.0396,-1.0382,-1.0388,-1.0373,-1.0363,-1.0361,-1.0342,-1.0334,-1.032,-1.0298,-1.0288,-1.029,-1.0256,-1.0265,-1.0264,-1.0262,-1.0251,-1.0249,-1.0246,-1.0277,-1.0277,-1.0277,0,0,-1.0417,-1.0409,-1.0394,-1.0387,-1.0375,-1.037,-1.0366,-1.0354,-1.0349,-1.033,-1.0329,-1.0317,-1.0291,-1.0281,-1.0273,-1.0251,-1.025,-1.0246,-1.0237,-1.0226,-1.0224,-1.0222,-1.0215,-1.0213,-1.0244,-1.0244,-1.0244,0,-1.0407,-1.0388,-1.0386,-1.0372,-1.0364,-1.0365,-1.035,-1.0342,-1.0325,-1.0319,-1.0323,-1.0292,-1.0282,-1.0259,-1.0254,-1.0247,-1.0243,-1.0247,-1.0225,-1.0223,-1.0221,-1.0214,-1.0211,-1.0244,-1.0244,-1.0244,-1.0244,0,-1.0378,-1.0365,-1.0354,-1.034,-1.0332,-1.0317,-1.0312,-1.0303,-1.0302,-1.0297,-1.0278,-1.0267,-1.0251,-1.0245,-1.0243,-1.0222,-1.0225,-1.0227,-1.0232,-1.0218,-1.0212,-1.0209,-1.0243,-1.0243,-1.0243,-1.0244,0,0,-1.0348,-1.0337,-1.0333,-1.0327,-1.0316,-1.0305,-1.0291,-1.0278,-1.027,-1.0259,-1.0247,-1.0227,-1.023,-1.0221,-1.0218,-1.0208,-1.0193,-1.0212,-1.0211,-1.0209,-1.0171,-1.0169,-1.0166,-1.0193,-1.0192,-1.0192,-1.0173,0,-1.0325,-1.0302,-1.0301,-1.0279,-1.0267,-1.0269,-1.0257,-1.0248,-1.0244,-1.0233,-1.0227,-1.0214,-1.0218,-1.0213,-1.0204,-1.0197,-1.0185,-1.0198,-1.0181,-1.018,-1.0184,-1.0163,-1.016,-1.0142,-1.017,-1.0169,-1.0169,0,-1.0295,-1.0286,-1.0264,-1.0256,-1.0251,-1.024,-1.0229,-1.0219,-1.0209,-1.0207,-1.0198,-1.0197,-1.0183,-1.019,-1.017,-1.0179,-1.0172,-1.0168,-1.0168,-1.0165,-1.0173,-1.016,-1.0136,-1.0134,-1.0165,-1.0165,-1.0165,0,-1.0277,-1.0259,-1.0244,-1.0239,-1.023,-1.0222,-1.0218,-1.0209,-1.0202,-1.0192,-1.0187,-1.0175,-1.0168,-1.0159,-1.0155,-1.016,-1.0135,-1.0142,-1.0132,-1.0133,-1.0126,-1.0126,-1.0101,-1.0122,-1.0122,-1.0122,-1.0122,0,-1.0251,-1.0237,-1.0236,-1.0226,-1.0211,-1.021,-1.0195,-1.0191,-1.0184,-1.0174,-1.0175,-1.0165,-1.016,-1.0149,-1.0146,-1.0131,-1.0127,-1.0125,-1.0124,-1.0124,-1.0125,-1.0119,-1.012,-1.0121,-1.0122,-1.0122,-1.0122,0,-1.0227,-1.0225,-1.0209,-1.0203,-1.0201,-1.0191,-1.0185,-1.0176,-1.0173,-1.016,-1.0157,-1.0151,-1.0139,-1.0135,-1.0119,-1.0117,-1.0099,-1.01,-1.0103,-1.0103,-1.0094,-1.0095,-1.0063,-1.006,-1.0083,-1.0083,-1.0083,0,-1.021,-1.02,-1.0194,-1.0188,-1.0184,-1.0174,-1.0168,-1.0167,-1.016,-1.0151,-1.0143,-1.0132,-1.0122,-1.0103,-1.0097,-1.0086,-1.0086,-1.0076,-1.0084,-1.0085,-1.0086,-1.0086,-1.0086,-1.0074,-1.0073,-1.0073,-1.0073,0,-1.0181,-1.0182,-1.0173,-1.0166,-1.0159,-1.0152,-1.0145,-1.014,-1.0138,-1.0131,-1.012,-1.0113,-1.0099,-1.0087,-1.0076,-1.0071,-1.0072,-1.0071,-1.0068,-1.0068,-1.0071,-1.007,-1.0099,-1.0071,-1.0071,-1.0072,-1.0072,-1.0072,-1.0161,-1.0153,-1.0148,-1.0139,-1.0135,-1.0129,-1.0121,-1.0119,-1.011,-1.01,-1.01,-1.0088,-1.0081,-1.0067,-1.0061,-1.0051,-1.0054,-1.005,-1.0049,-1.0048,-1.0047,-1.0074,-1.0049,-1.0049,-1.0049,-1.0049,-1.0049,0,-1.0132,-1.013,-1.0122,-1.0114,-1.0108,-1.0112,-1.0105,-1.0099,-1.0089,-1.0083,-1.0075,-1.0063,-1.0053,-1.0048,-1.0038,-1.0031,-1.0032,-1.0029,-1.0029,-1.0028,-1.0045,-1.0049,-1.0029,-1.0029,-1.0029,-1.0029,-1.0029,-1.0029,-1.0116,-1.0104,-1.0104,-1.009,-1.0087,-1.0077,-1.0073,-1.0069,-1.0064,-1.0052,-1.0044,-1.0042,-1.0036,-1.0026,-1.0018,-1.0016,-1.0012,-1.0009,-1.0008,-1.0024,-1.0026,-1.0028,-1.0032,-1.0009,-1.0009,-0.9992,-0.9992,-0.9992]},{"header":{"parameterUnit":"m.s-1","parameterCategory":1,"la1":30.2991,"la2":30.254,"lo1":-89.0895,"lo2":-89.0444,"dy":0.0017,"dx":0.0017,"nx":28,"ny":28,"refTime":"2024-07-11T21:00:00:Z","depth":0,"parameterNumber":3,"parameterNumberName":"V-component_of_WINDS"},"data":[0,0,0,0,0,0,0,0,0,0,0,0,0,0,0,0,0,0,0,0,0,0,0,0,0,0,0,0,0,0,0,0,0,0,0,0,0,0,0,0,0,0,0,0,0,0,0,0,0,0,0,0,0,0,0,0,0,0,3.4244,3.4243,0,3.4072,3.407,3.4068,3.3995,3.3996,3.3996,3.3997,3.3809,3.3804,3.3799,0,0,0,0,0,0,0,0,0,0,0,0,0,3.45,3.4496,3.4245,3.4243,3.424,3.4072,3.407,3.4068,3.3995,3.3996,3.3996,3.3997,3.3811,3.3805,3.3798,0,0,0,0,0,0,0,0,0,0,0,0,0,3.4365,3.4495,3.4245,3.4184,3.4177,3.4073,3.407,3.4067,3.3995,3.3996,3.3996,3.3997,3.3813,3.3805,3.3798,3.3737,0,0,3.3773,3.377,0,0,0,0,0,0,0,0,3.4372,3.4355,3.4195,3.4188,3.418,3.4056,3.4091,3.3956,3.3995,3.4064,3.3997,3.3997,3.389,3.3876,3.3842,3.3729,3.3721,3.3772,3.3768,3.3764,3.3762,0,0,0,0,0,0,0,3.4382,3.4362,3.4176,3.4193,3.4184,3.4162,3.4143,3.4065,3.3976,3.4058,3.4052,3.4034,3.3886,3.385,3.3837,3.3718,3.3773,3.3766,3.3761,3.3758,3.3543,3.3543,0,0,0,0,0,0,3.4403,3.4371,3.4181,3.4171,3.428,3.4157,3.4136,3.4095,3.3977,3.3959,3.4033,3.4031,3.3863,3.3847,3.383,3.375,3.3764,3.3757,3.3752,3.3544,3.3543,3.3542,0,0,0,0,0,0,3.4409,3.4387,3.4188,3.4269,3.4242,3.4152,3.4107,3.4091,3.4055,3.3958,3.3941,3.4014,3.3863,3.3842,3.3761,3.3743,3.3753,3.3746,3.3545,3.3544,3.3543,3.3592,0,0,0,0,0,0,3.4416,3.4389,3.4368,3.4269,3.4238,3.4126,3.4106,3.4088,3.4043,3.4038,3.3935,3.3918,3.3862,3.3774,3.3753,3.3732,3.374,3.3547,3.3545,3.3543,3.3591,3.3592,3.3593,0,0,0,0,0,3.4426,3.4387,3.4368,3.4345,3.4211,3.4125,3.4107,3.4046,3.4042,3.4018,3.3955,3.3921,3.3749,3.3766,3.3743,3.3719,3.3547,3.3545,3.3543,3.3591,3.3592,3.3593,0,0,0,0,0,0,3.4483,3.4373,3.435,3.4279,3.4213,3.4113,3.4081,3.4049,3.398,3.3977,3.3901,3.3879,3.3804,3.3753,3.3774,3.3653,3.3645,3.3638,3.3689,3.3689,3.369,3.3703,3.3733,0,0,0,0,0,3.4488,3.4431,3.4337,3.4283,3.4251,3.4172,3.4132,3.4092,3.4018,3.3988,3.3919,3.3846,3.3775,3.3729,3.3659,3.3584,3.3558,3.3556,3.3557,3.3558,3.3552,3.3506,3.3503,3.3536,3.3536,3.3536,0,0,3.4496,3.4429,3.4397,3.4293,3.4236,3.4175,3.4149,3.4086,3.4038,3.3977,3.3898,3.3845,3.3757,3.368,3.3641,3.3634,3.3537,3.3555,3.3557,3.355,3.3503,3.35,3.3498,3.3534,3.3534,3.3535,0,0,3.448,3.4426,3.4374,3.4318,3.4234,3.4182,3.4169,3.4075,3.4038,3.3958,3.391,3.3851,3.3731,3.367,3.3624,3.3584,3.3549,3.3563,3.3566,3.3522,3.352,3.3517,3.35,3.3496,3.3558,3.3558,3.3558,0,3.4501,3.4411,3.435,3.429,3.4244,3.4189,3.4134,3.4081,3.3977,3.3945,3.394,3.3787,3.3724,3.363,3.3621,3.3586,3.3566,3.3574,3.3526,3.3522,3.3519,3.3502,3.3496,3.356,3.356,3.356,3.3559,0,3.4438,3.4376,3.4344,3.4248,3.4198,3.4141,3.4068,3.4024,3.3988,3.3935,3.3852,3.3775,3.3687,3.3662,3.3624,3.3561,3.356,3.3541,3.3531,3.3519,3.3502,3.3495,3.3563,3.3562,3.3562,3.3561,0,0,3.4453,3.4325,3.4314,3.4269,3.4172,3.412,3.4059,3.3976,3.3939,3.3868,3.3812,3.3712,3.3694,3.3641,3.3596,3.3557,3.3528,3.3543,3.3539,3.3541,3.3451,3.3464,3.3458,3.3505,3.3504,3.3502,3.3457,0,3.4423,3.4315,3.4258,3.4172,3.4112,3.4058,3.4004,3.3936,3.3885,3.3823,3.3765,3.3695,3.3678,3.3645,3.3605,3.354,3.3508,3.3543,3.3448,3.3446,3.3471,3.3449,3.3463,3.3424,3.345,3.3449,3.3448,0,3.4373,3.4307,3.4216,3.4124,3.4096,3.4049,3.3968,3.3911,3.3831,3.3796,3.3738,3.3693,3.3622,3.3619,3.3518,3.3543,3.3501,3.3463,3.346,3.3447,3.3445,3.3433,3.3411,3.3404,3.3437,3.3438,3.3439,0,3.4391,3.4278,3.4209,3.4172,3.4063,3.4031,3.3983,3.3905,3.3858,3.3786,3.3754,3.3673,3.3628,3.3565,3.3498,3.3502,3.3402,3.3394,3.3368,3.337,3.3348,3.335,3.3316,3.3325,3.3325,3.3325,3.3325,0,3.4363,3.4308,3.4215,3.4172,3.4108,3.4042,3.398,3.3928,3.3858,3.3801,3.3749,3.3695,3.3612,3.3547,3.3494,3.3417,3.3397,3.3364,3.335,3.3367,3.3371,3.3337,3.3337,3.3323,3.3323,3.3324,3.3324,0,3.4372,3.4308,3.4228,3.4132,3.4106,3.4064,3.398,3.3933,3.388,3.3808,3.3787,3.3701,3.3622,3.355,3.3444,3.3408,3.3329,3.3313,3.3357,3.3349,3.3326,3.3328,3.3267,3.3254,3.3274,3.3274,3.3274,0,3.4357,3.4314,3.4215,3.4174,3.4129,3.4064,3.4017,3.3949,3.39,3.3806,3.3771,3.3688,3.3619,3.3494,3.342,3.3337,3.3317,3.3301,3.3304,3.3322,3.3314,3.3317,3.331,3.3302,3.3302,3.3302,3.3302,0,3.4337,3.4307,3.4243,3.4166,3.4112,3.4047,3.3981,3.395,3.3868,3.3816,3.3737,3.3683,3.3576,3.3493,3.3403,3.3349,3.331,3.3302,3.3291,3.3307,3.3334,3.3317,3.3357,3.3303,3.3303,3.3303,3.3303,3.3303,3.4332,3.429,3.4214,3.4143,3.4086,3.4025,3.3977,3.3918,3.3851,3.3761,3.3724,3.3642,3.356,3.3435,3.3382,3.3314,3.3306,3.3291,3.3286,3.3283,3.3285,3.3347,3.3297,3.3297,3.3297,3.3297,3.3297,0,3.4307,3.4255,3.4191,3.4101,3.4044,3.4017,3.3941,3.3894,3.3824,3.3753,3.3686,3.3592,3.3512,3.3431,3.3346,3.3306,3.3286,3.3286,3.3287,3.3274,3.3299,3.3316,3.3303,3.3303,3.3303,3.3303,3.3303,3.3303,3.4288,3.4216,3.4177,3.4075,3.4022,3.3944,3.3903,3.3844,3.3787,3.3686,3.362,3.357,3.3493,3.3401,3.3325,3.3303,3.3272,3.3276,3.3249,3.3273,3.3273,3.3273,3.3289,3.3271,3.3271,3.323,3.323,3.3229]}]]